QPF
0.00 0.00 0.00 0.00 0.00 0.00 0.00 0.00 0.00 0.00 0.00 0.00 0.00 0.00 0.00 0.00 0.00 0.00 0.00 0.00 0.00 0.00 0.00 0.00 0.00 0.00 0.00 0.00 0.00 0.00 0.00 0.00 0.00 0.00 0.00 0.00 0.00 0.00 0.00 0.00 0.00 0.00 0.00 0.00
0.00 0.00 0.00 0.00 0.00 0.00 0.00 0.00 0.00 0.00 0.00 0.00 0.00 0.00 0.00 0.00 0.00 0.00 0.00 0.00 0.00 0.00 0.00 0.00 0.00 0.00 0.00 0.00 0.00 0.00 0.00 0.00 0.00 0.00 0.00 0.00 0.00 0.00 0.00 0.00 0.00 0.00 0.00 0.00
0.00 0.00 0.00 0.00 0.00 0.00 0.00 0.00 0.00 0.00 0.00 0.00 0.00 0.00 0.00 0.00 0.00 0.00 0.00 0.00 0.00 0.00 0.00 0.00 0.00 0.00 0.00 0.00 0.00 0.00 0.00 0.00 0.00 0.00 0.00 0.00 0.00 0.00 0.00 0.00 0.00 0.00 0.00 0.00
0.02 0.00 0.00 0.00 0.00 0.00 0.00 0.00 0.00 0.00 0.00 0.00 0.00 0.00 0.00 0.00 0.00 0.00 0.00 0.00 0.00 0.00 0.00 0.00 0.00 0.00 0.00 0.00 0.00 0.00 0.00 0.00 0.00 0.00 0.00 0.00 0.00 0.00 0.00 0.00 0.00 0.00 0.00 0.00
0.00 0.00 0.00 0.00 0.00 0.00 0.00 0.00 0.00 0.00 0.00 0.00 0.00 0.00 0.00 0.00 0.00 0.00 0.00 0.00 0.00 0.00 0.00 0.00 0.00 0.00 0.00 0.00 0.00 0.00 0.00 0.00 0.00 0.00 0.00 0.00 0.00 0.00 0.00 0.00 0.00 0.00 0.00 0.00
0.00 0.00 0.00 0.00 0.00 0.00 0.00 0.00 0.00 0.00 0.00 0.00 0.00 0.00 0.00 0.00 0.00 0.00 0.00 0.00 0.00 0.00 0.00 0.00 0.00 0.00 0.00 0.00 0.00 0.00 0.00 0.00 0.00 0.00 0.00 0.00 0.00 0.00 0.00 0.00 0.00 0.00 0.00 0.00
0.00 0.00 0.01 0.00 0.00 0.00 0.00 0.01 0.01 0.01 0.01 0.00 0.00 0.00 0.00 0.00 0.00 0.00 0.00 0.00 0.00 0.00 0.00 0.00 0.00 0.00 0.00 0.00 0.00 0.00 0.00 0.00 0.00 0.00 0.00 0.00 0.01 0.01 0.01 0.00 0.00 0.00 0.00 0.00
0.01 0.00 0.00 0.00 0.00 0.01 0.00 0.01 0.02 0.02 0.00 0.00 0.00 0.00 0.00 0.00 0.00 0.00 0.00 0.00 0.00 0.00 0.00 0.00 0.00 0.00 0.00 0.00 0.00 0.00 0.00 0.00 0.00 0.00 0.00 0.00 0.01 0.03 0.03 0.02 0.01 0.01 0.01 0.00
0.06 0.01 0.00 0.00 0.00 0.02 0.03 0.04 0.01 0.03 0.01 0.01 0.00 0.00 0.00 0.00 0.00 0.00 0.00 0.00 0.00 0.00 0.00 0.00 0.00 0.00 0.00 0.00 0.00 0.00 0.00 0.00 0.00 0.00 0.00 0.01 0.02 0.02 0.03 0.03 0.02 0.01 0.00 0.00
0.05 0.02 0.00 0.00 0.00 0.01 0.03 0.02 0.05 0.08 0.15 0.12 0.02 0.00 0.00 0.00 0.00 0.00 0.00 0.00 0.00 0.00 0.00 0.00 0.00 0.00 0.00 0.00 0.00 0.00 0.00 0.00 0.00 0.00 0.00 0.00 0.01 0.03 0.07 0.04 0.01 0.01 0.00 0.00
0.01 0.01 0.00 0.00 0.00 0.00 0.00 0.02 0.04 0.09 0.09 0.04 0.02 0.00 0.00 0.00 0.00 0.00 0.00 0.00 0.00 0.00 0.00 0.00 0.00 0.00 0.00 0.00 0.00 0.00 0.00 0.00 0.00 0.00 0.00 0.00 0.01 0.04 0.04 0.03 0.01 0.00 0.00 0.01
0.00 0.00 0.00 0.00 0.00 0.00 0.02 0.04 0.10 0.19 0.15 0.09 0.06 0.03 0.00 0.00 0.00 0.00 0.00 0.00 0.00 0.00 0.00 0.00 0.00 0.00 0.00 0.00 0.00 0.00 0.00 0.00 0.00 0.00 0.00 0.00 0.01 0.02 0.01 0.02 0.01 0.00 0.01 0.01
0.00 0.00 0.00 0.00 0.00 0.00 0.05 0.15 0.12 0.13 0.14 0.13 0.13 0.05 0.00 0.00 0.00 0.00 0.00 0.00 0.00 0.00 0.00 0.00 0.00 0.00 0.00 0.00 0.00 0.00 0.00 0.00 0.00 0.00 0.00 0.00 0.00 0.01 0.01 0.01 0.00 0.00 0.01 0.02
0.00 0.00 0.00 0.00 0.00 0.00 0.00 0.01 0.08 0.12 0.07 0.08 0.09 0.05 0.00 0.00 0.00 0.00 0.00 0.00 0.00 0.00 0.00 0.00 0.00 0.00 0.00 0.00 0.00 0.00 0.00 0.00 0.00 0.00 0.00 0.00 0.00 0.01 0.01 0.00 0.00 0.00 0.00 0.01
0.01 0.01 0.00 0.00 0.00 0.00 0.00 0.00 0.00 0.04 0.03 0.04 0.00 0.00 0.00 0.00 0.00 0.00 0.00 0.00 0.00 0.00 0.00 0.00 0.00 0.00 0.00 0.00 0.00 0.00 0.00 0.00 0.00 0.00 0.00 0.01 0.01 0.01 0.01 0.00 0.00 0.00 0.00 0.00
0.03 0.06 0.03 0.01 0.00 0.00 0.00 0.00 0.00 0.00 0.00 0.00 0.00 0.00 0.00 0.00 0.00 0.00 0.00 0.00 0.00 0.00 0.00 0.00 0.00 0.00 0.00 0.00 0.00 0.00 0.00 0.00 0.00 0.00 0.00 0.03 0.02 0.02 0.00 0.00 0.00 0.00 0.00 0.00
0.00 0.01 0.01 0.00 0.00 0.01 0.02 0.00 0.00 0.00 0.00 0.01 0.01 0.00 0.00 0.00 0.00 0.00 0.00 0.00 0.00 0.00 0.00 0.00 0.00 0.00 0.00 0.00 0.00 0.00 0.00 0.00 0.00 0.00 0.00 0.02 0.02 0.01 0.00 0.00 0.00 0.00 0.00 0.00
0.00 0.00 0.01 0.00 0.00 0.02 0.00 0.00 0.00 0.00 0.00 0.00 0.00 0.00 0.00 0.00 0.00 0.00 0.00 0.00 0.00 0.00 0.00 0.00 0.00 0.00 0.00 0.00 0.00 0.00 0.00 0.00 0.00 0.00 0.00 0.01 0.01 0.01 0.00 0.00 0.00 0.00 0.00 0.00
0.00 0.00 0.01 0.01 0.00 0.00 0.00 0.00 0.00 0.00 0.00 0.00 0.00 0.00 0.00 0.00 0.00 0.00 0.00 0.00 0.00 0.00 0.00 0.00 0.00 0.00 0.00 0.00 0.00 0.00 0.00 0.00 0.00 0.00 0.00 0.01 0.02 0.01 0.00 0.00 0.00 0.00 0.00 0.00
0.00 0.00 0.02 0.02 0.02 0.00 0.00 0.00 0.00 0.00 0.00 0.00 0.00 0.00 0.00 0.00 0.00 0.00 0.00 0.00 0.00 0.00 0.00 0.00 0.00 0.00 0.00 0.00 0.00 0.00 0.00 0.00 0.00 0.00 0.00 0.01 0.01 0.01 0.00 0.00 0.00 0.00 0.00 0.00
0.00 0.00 0.02 0.01 0.02 0.00 0.00 0.00 0.00 0.00 0.00 0.00 0.00 0.00 0.00 0.00 0.00 0.00 0.00 0.00 0.00 0.00 0.00 0.00 0.00 0.00 0.00 0.00 0.00 0.00 0.00 0.00 0.00 0.00 0.00 0.01 0.02 0.01 0.01 0.00 0.00 0.00 0.00 0.00
0.00 0.01 0.01 0.02 0.03 0.01 0.00 0.00 0.00 0.00 0.00 0.00 0.00 0.00 0.00 0.00 0.00 0.00 0.00 0.00 0.00 0.00 0.00 0.00 0.00 0.00 0.00 0.00 0.00 0.00 0.00 0.00 0.00 0.00 0.00 0.01 0.01 0.01 0.00 0.00 0.00 0.00 0.00 0.00
0.00 0.00 0.00 0.00 0.00 0.00 0.00 0.00 0.00 0.00 0.00 0.00 0.00 0.00 0.00 0.00 0.00 0.00 0.00 0.00 0.00 0.00 0.00 0.00 0.00 0.00 0.00 0.00 0.00 0.00 0.00 0.00 0.00 0.00 0.01 0.03 0.02 0.02 0.01 0.00 0.00 0.00 0.00 0.00
0.00 0.00 0.00 0.01 0.00 0.00 0.00 0.00 0.00 0.00 0.00 0.00 0.00 0.00 0.00 0.00 0.00 0.00 0.00 0.00 0.00 0.00 0.00 0.00 0.00 0.00 0.00 0.00 0.00 0.00 0.00 0.00 0.00 0.00 0.01 0.02 0.02 0.01 0.00 0.00 0.00 0.01 0.01 0.03
0.00 0.00 0.00 0.01 0.00 0.00 0.00 0.00 0.00 0.00 0.00 0.00 0.00 0.00 0.00 0.00 0.00 0.00 0.00 0.00 0.00 0.00 0.00 0.00 0.00 0.01 0.01 0.00 0.00 0.00 0.00 0.00 0.00 0.00 0.01 0.01 0.00 0.00 0.01 0.02 0.03 0.06 0.10 0.11
0.00 0.00 0.01 0.02 0.00 0.00 0.00 0.00 0.00 0.00 0.00 0.00 0.00 0.01 0.02 0.01 0.02 0.01 0.00 0.00 0.00 0.00 0.00 0.00 0.01 0.01 0.02 0.01 0.01 0.00 0.00 0.00 0.00 0.00 0.00 0.01 0.04 0.11 0.16 0.19 0.22 0.23 0.19 0.13
MSLP
1009.29 1009.54 1008.48 1007.15 1008.56 1008.84 1008.56 1008.31 1007.84 1007.07 1006.55 1006.23 1005.82 1004.74 1004.35 1004.46 1004.31 1004.12 1003.77 1003.62 1003.03 1002.54 1002.01 1001.82 1002.18 1002.69 1002.97 1003.08 1003.50 1003.99 1004.71 1005.34 1005.94 1006.71 1007.45 1008.24 1008.49 1009.12 1009.69 1010.06 1010.33 1010.81 1011.21 1011.63
1009.64 1007.93 1006.06 1008.33 1008.64 1008.98 1008.99 1008.77 1007.58 1007.55 1007.01 1006.68 1006.15 1004.82 1004.48 1004.36 1003.81 1003.23 1003.07 1003.01 1002.62 1002.27 1001.86 1001.43 1001.37 1001.68 1002.20 1002.09 1002.29 1002.87 1003.55 1004.28 1004.48 1005.31 1006.06 1007.14 1007.88 1008.51 1008.98 1009.51 1009.95 1010.23 1010.73 1011.16
1007.57 1004.91 1007.38 1007.79 1008.09 1008.44 1008.22 1008.25 1007.28 1007.89 1007.55 1006.84 1006.80 1005.40 1004.56 1003.70 1003.27 1002.34 1002.12 1002.02 1001.95 1001.88 1001.78 1001.34 1001.09 1000.93 1001.17 1001.43 1001.70 1002.12 1002.24 1003.13 1003.61 1004.41 1005.80 1006.79 1007.83 1008.65 1009.02 1009.22 1009.46 1009.64 1010.10 1010.59
1007.71 1006.36 1006.57 1006.78 1007.13 1007.51 1007.38 1007.13 1007.96 1008.18 1008.53 1007.55 1006.97 1005.49 1004.21 1002.82 1002.48 1002.45 1001.48 1001.50 1001.41 1001.37 1001.31 1001.11 1000.98 1000.94 1000.93 1000.88 1000.77 1001.26 1001.87 1002.42 1003.03 1003.85 1004.89 1005.37 1005.71 1006.84 1007.29 1008.03 1008.81 1009.34 1009.71 1010.38
1005.41 1005.59 1006.02 1006.34 1005.68 1006.88 1006.43 1007.30 1007.69 1008.23 1008.27 1008.11 1007.56 1006.78 1001.63 1002.83 1002.02 1000.71 1000.63 1000.99 1000.94 1000.79 1000.78 1000.69 1000.60 1000.51 1000.31 1000.52 1000.54 1000.81 1001.46 1002.38 1002.81 1003.33 1003.80 1004.75 1005.33 1005.92 1006.55 1007.60 1008.39 1009.15 1009.59 1010.05
1005.90 1005.87 1006.16 1005.35 1006.01 1006.59 1006.72 1007.19 1007.67 1008.08 1008.30 1008.07 1005.45 1005.95 1000.45 1001.48 999.62 999.96 1000.03 1000.13 1000.24 1000.29 1000.17 1000.03 999.93 1000.05 1000.14 1000.53 1000.84 1000.90 1001.45 1001.84 1002.43 1003.00 1003.69 1004.14 1004.56 1005.42 1006.52 1007.62 1008.67 1009.41 1009.72 1010.13
1006.69 1006.55 1006.02 1005.75 1005.83 1006.24 1006.66 1007.41 1007.61 1008.06 1007.81 1005.79 1004.07 1005.54 1001.56 999.75 999.59 999.49 999.67 999.60 999.56 999.65 999.76 999.74 999.91 1000.04 1000.09 1000.39 1000.65 1000.85 1001.20 1001.63 1001.88 1002.27 1003.10 1003.89 1004.42 1004.85 1005.59 1006.60 1007.70 1008.97 1009.68 1010.31
1008.33 1006.74 1005.67 1004.97 1004.96 1005.31 1005.60 1006.43 1006.70 1006.80 1006.15 1004.20 1005.02 1003.90 999.90 998.38 1000.01 998.99 999.15 999.01 998.90 999.07 999.44 999.49 999.45 999.64 999.65 999.68 999.98 1000.22 1000.39 1000.99 1001.61 1002.18 1002.50 1003.10 1003.88 1004.75 1005.55 1006.08 1007.15 1008.17 1009.02 1009.83
1010.50 1008.01 1005.88 1004.63 1004.42 1005.42 1005.05 1005.07 1004.74 1006.41 1006.19 1005.83 1003.94 1002.59 1000.05 998.80 998.89 998.40 998.15 998.54 998.56 998.60 998.85 998.81 998.86 998.96 998.88 999.09 998.99 999.30 999.49 999.98 1000.60 1001.26 1002.08 1002.66 1003.27 1004.07 1005.01 1006.18 1007.10 1007.94 1008.63 1009.62
1012.54 1010.48 1007.75 1006.13 1004.87 1004.47 1004.40 1005.00 1005.83 1006.04 1005.32 1005.29 1003.17 1002.05 1000.04 997.81 997.93 998.25 998.31 998.11 998.57 998.57 998.58 998.30 998.32 998.24 997.74 997.78 998.03 998.46 998.74 999.08 999.67 1000.81 1001.63 1002.14 1002.94 1003.81 1005.00 1006.03 1006.99 1007.75 1008.57 1009.37
1013.07 1012.32 1009.99 1008.48 1006.58 1006.07 1005.76 1006.21 1006.03 1006.05 1005.51 1004.35 1003.03 1001.52 999.75 998.04 998.55 998.51 998.16 998.19 998.49 998.43 998.27 998.06 997.80 997.36 997.26 997.23 997.47 997.68 998.18 998.78 999.48 1000.23 1001.08 1002.16 1002.98 1003.84 1004.93 1005.86 1006.95 1007.68 1008.61 1009.46
1013.40 1013.39 1012.52 1010.26 1008.17 1008.77 1008.88 1008.52 1008.54 1007.62 1006.62 1005.32 1003.77 1001.28 999.76 998.51 999.41 999.34 999.15 998.61 998.43 998.27 998.08 997.63 997.60 997.61 997.22 997.08 997.22 997.42 997.80 998.33 999.15 1000.04 1001.10 1001.86 1002.71 1003.74 1004.81 1005.95 1007.09 1008.00 1008.82 1009.74
1013.33 1013.85 1013.45 1010.93 1009.96 1009.72 1009.98 1010.34 1010.56 1009.73 1008.20 1006.90 1005.09 1002.48 1000.60 1000.38 1000.72 1000.59 1000.21 999.70 998.99 998.40 998.07 997.57 997.50 997.36 997.39 997.39 997.56 997.88 997.98 998.42 999.26 1000.01 1000.88 1001.81 1002.67 1003.77 1004.91 1005.86 1007.06 1008.16 1009.04 1010.04
1013.46 1013.78 1013.70 1012.93 1011.53 1011.12 1010.58 1010.46 1010.78 1011.02 1009.95 1008.08 1006.96 1005.16 1002.09 1001.76 1001.87 1001.60 1001.13 1000.63 999.71 998.99 998.57 998.07 997.65 997.34 997.24 997.32 997.54 998.09 998.82 999.08 999.80 1000.58 1001.27 1002.04 1002.94 1003.82 1004.86 1005.97 1007.04 1008.13 1009.03 1010.25
1013.71 1013.91 1013.53 1012.96 1012.17 1011.56 1010.82 1010.44 1010.37 1010.24 1009.76 1009.24 1007.47 1006.76 1002.72 1003.06 1002.78 1001.94 1001.57 1000.86 999.94 999.22 998.78 998.26 997.83 997.36 997.13 997.41 997.74 998.22 998.77 999.28 999.95 1000.72 1001.61 1002.46 1003.29 1004.09 1005.03 1006.04 1007.20 1008.17 1009.31 1010.33
1013.80 1013.78 1013.44 1012.72 1012.04 1011.35 1010.44 1009.96 1009.74 1009.37 1008.92 1008.39 1007.28 1006.35 1003.80 1002.91 1002.62 1001.96 1001.61 1001.00 1000.24 999.73 999.16 998.08 997.27 996.87 996.80 997.14 997.62 997.99 998.42 999.17 999.89 1000.57 1001.62 1002.64 1003.47 1004.54 1005.52 1006.22 1007.22 1008.45 1009.67 1010.59
1013.93 1013.68 1013.43 1012.40 1011.69 1011.16 1010.10 1008.46 1008.44 1008.09 1007.48 1006.97 1006.23 1004.34 1001.97 1001.64 1002.21 1001.50 1001.40 1000.76 1000.11 999.46 998.57 997.85 996.92 996.59 996.27 996.35 996.94 997.37 997.78 998.75 999.61 1000.49 1001.58 1002.51 1003.49 1004.32 1005.33 1006.23 1007.27 1008.39 1009.54 1010.65
1012.87 1013.01 1013.35 1012.37 1011.95 1010.57 1007.98 1006.80 1006.68 1006.31 1005.65 1005.14 1004.28 1003.60 1002.36 1001.51 1001.37 1001.32 1001.05 1000.43 999.66 998.73 997.81 997.43 996.85 996.19 995.32 995.32 996.07 996.88 997.75 998.53 999.56 1000.46 1001.54 1002.36 1003.28 1004.41 1005.48 1006.22 1007.17 1008.49 1009.70 1010.71
1011.96 1012.77 1012.81 1012.25 1010.74 1008.91 1007.67 1005.92 1005.43 1004.87 1004.19 1004.21 1003.66 1002.76 1001.76 1001.46 1001.08 1000.93 1000.05 999.48 998.79 998.25 997.68 997.38 996.90 996.12 995.15 995.06 995.33 996.24 997.18 997.74 999.05 1000.09 1000.71 1001.64 1002.54 1003.93 1005.15 1006.26 1007.07 1008.44 1009.73 1010.99
1010.76 1011.16 1011.91 1011.71 1010.33 1008.26 1004.16 1004.00 1004.34 1004.72 1003.64 1002.88 1002.52 1002.19 1001.63 1000.96 1000.80 999.15 999.04 998.15 997.99 998.05 997.88 997.32 996.47 995.66 994.94 994.45 995.14 995.85 996.52 997.22 997.91 998.80 999.58 1000.74 1002.00 1003.22 1004.78 1005.94 1007.07 1008.44 1009.76 1010.74
1010.56 1010.71 1010.33 1010.04 1008.90 1005.42 1003.46 1003.41 1003.67 1004.09 1002.06 1000.84 1001.48 1001.50 1001.22 1000.86 1000.00 998.49 997.85 997.63 997.33 997.20 997.01 996.60 996.01 995.33 994.66 994.19 994.71 995.30 995.89 996.13 996.79 998.34 999.39 1000.71 1002.15 1003.31 1004.77 1006.36 1007.82 1008.73 1009.98 1011.30
1008.72 1009.08 1008.92 1008.66 1007.48 1004.70 1002.78 1002.59 1002.78 1001.51 1000.72 1000.65 1000.56 1000.20 999.89 999.25 998.71 998.20 997.15 997.10 996.46 996.33 996.32 996.25 995.68 995.02 994.35 994.04 994.45 994.60 995.08 995.40 996.88 998.27 999.51 1000.73 1002.33 1003.78 1005.29 1006.54 1007.86 1008.79 1009.93 1011.22
1007.56 1006.69 1006.63 1006.66 1004.55 1002.93 1002.05 1001.42 1000.82 1000.44 1000.60 1000.38 1000.18 999.11 999.26 998.89 998.09 997.21 996.31 996.76 996.10 996.29 996.36 996.20 995.78 995.02 994.19 993.53 993.81 993.93 994.38 995.62 996.94 998.94 1000.11 1001.37 1002.81 1004.50 1005.09 1006.73 1008.02 1009.08 1010.17 1011.02
1005.67 1005.34 1005.18 1005.35 1001.94 1001.88 1000.82 1000.46 999.76 999.60 999.29 999.19 998.91 998.22 998.36 998.22 997.68 996.78 995.81 995.62 995.44 995.37 995.42 995.80 995.50 995.13 994.27 993.78 993.75 994.44 994.95 995.94 997.34 999.18 1000.62 1002.01 1003.52 1004.71 1006.15 1007.21 1008.22 1008.88 1009.65 1010.66
1004.27 1004.13 1003.10 1002.19 1001.27 1000.63 999.68 999.22 998.68 998.60 998.23 998.05 997.65 997.38 996.83 996.35 996.63 996.08 994.98 994.70 994.74 994.58 994.91 995.43 995.41 995.28 994.95 993.95 994.37 995.08 996.23 996.56 997.99 999.83 1001.15 1002.55 1004.08 1005.25 1006.46 1007.76 1008.51 1009.25 1010.08 1010.10
1003.05 1001.84 1002.27 1000.75 999.80 999.70 998.77 997.97 998.02 997.83 997.39 996.87 996.45 995.77 995.37 995.15 994.62 994.65 994.12 993.93 994.17 994.11 994.35 995.04 994.91 995.76 995.61 995.15 995.76 996.17 996.82 997.23 998.23 1000.04 1001.73 1002.80 1003.96 1005.36 1006.46 1007.43 1009.35 1010.15 1010.20 1011.06
Thickness
5593 5581 5602 5639 5630 5633 5638 5640 5643 5658 5669 5667 5669 5687 5701 5706 5710 5715 5727 5737 5746 5753 5771 5777 5775 5772 5770 5776 5777 5778 5774 5770 5766 5761 5754 5748 5745 5739 5736 5733 5730 5726 5721 5718
5569 5587 5641 5618 5617 5611 5615 5613 5633 5641 5652 5652 5655 5668 5680 5690 5704 5724 5727 5732 5743 5752 5760 5770 5774 5775 5772 5778 5781 5778 5776 5772 5771 5765 5759 5750 5744 5738 5735 5731 5728 5723 5718 5714
5576 5631 5608 5603 5603 5600 5609 5611 5633 5624 5627 5641 5633 5644 5665 5688 5699 5721 5727 5735 5740 5745 5750 5759 5768 5774 5772 5775 5778 5777 5778 5771 5769 5764 5754 5745 5736 5727 5725 5726 5722 5721 5716 5712
5562 5602 5594 5595 5593 5601 5599 5624 5613 5610 5600 5602 5619 5610 5653 5687 5691 5696 5723 5727 5735 5741 5746 5751 5759 5764 5764 5772 5778 5776 5772 5767 5762 5758 5751 5747 5744 5733 5731 5725 5718 5713 5710 5706
5580 5583 5582 5577 5603 5597 5605 5608 5601 5593 5590 5590 5596 5591 5669 5671 5676 5707 5723 5720 5726 5735 5739 5745 5750 5756 5760 5762 5767 5768 5764 5757 5753 5751 5749 5742 5737 5734 5726 5717 5711 5705 5702 5700
5567 5572 5564 5584 5594 5584 5600 5592 5587 5582 5578 5555 5616 5600 5660 5659 5698 5706 5714 5716 5722 5726 5733 5738 5745 5747 5752 5750 5749 5753 5751 5751 5747 5744 5739 5736 5734 5726 5715 5706 5697 5692 5691 5689
5547 5542 5558 5570 5569 5573 5574 5564 5555 5551 5550 5572 5630 5575 5639 5676 5690 5697 5699 5707 5716 5722 5726 5728 5730 5733 5738 5739 5737 5740 5741 5739 5742 5740 5734 5728 5724 5721 5714 5706 5696 5685 5681 5677
5513 5526 5552 5572 5568 5572 5568 5565 5554 5545 5557 5592 5595 5568 5645 5697 5672 5696 5700 5706 5713 5717 5713 5715 5720 5724 5729 5735 5733 5733 5734 5732 5733 5731 5729 5726 5718 5711 5703 5701 5691 5682 5676 5671
5479 5509 5545 5566 5576 5563 5569 5557 5591 5558 5566 5558 5574 5588 5648 5674 5672 5687 5697 5700 5705 5705 5708 5711 5713 5717 5721 5722 5727 5730 5731 5730 5728 5728 5722 5717 5713 5706 5698 5687 5679 5674 5670 5661
5431 5465 5514 5538 5554 5560 5561 5576 5553 5551 5556 5548 5576 5582 5612 5664 5670 5676 5679 5690 5689 5693 5698 5703 5703 5710 5718 5720 5724 5725 5727 5725 5724 5719 5715 5712 5706 5698 5686 5677 5670 5665 5659 5653
5422 5435 5474 5503 5528 5538 5542 5538 5547 5551 5549 5551 5557 5566 5626 5659 5661 5659 5669 5677 5674 5676 5685 5690 5699 5711 5716 5718 5720 5722 5719 5717 5714 5712 5709 5701 5694 5686 5675 5668 5659 5654 5647 5641
5412 5407 5425 5462 5501 5492 5481 5494 5491 5529 5538 5543 5547 5569 5625 5652 5645 5637 5642 5653 5658 5665 5672 5681 5687 5692 5702 5708 5711 5714 5713 5711 5708 5703 5696 5692 5685 5675 5668 5658 5648 5641 5634 5627
5410 5378 5380 5448 5472 5473 5457 5457 5453 5466 5483 5500 5533 5562 5612 5611 5609 5614 5621 5631 5641 5652 5660 5668 5675 5683 5688 5692 5696 5698 5701 5700 5697 5692 5686 5678 5673 5665 5656 5648 5638 5629 5621 5613
5408 5395 5396 5405 5430 5435 5448 5460 5455 5442 5443 5469 5478 5508 5577 5586 5587 5591 5597 5608 5621 5634 5640 5647 5657 5667 5674 5681 5684 5683 5681 5682 5680 5675 5671 5666 5660 5654 5645 5635 5627 5620 5613 5602
5385 5384 5402 5406 5418 5423 5432 5442 5450 5449 5450 5445 5486 5490 5551 5560 5563 5574 5580 5591 5606 5619 5627 5634 5641 5651 5661 5669 5671 5670 5667 5667 5666 5662 5657 5650 5646 5640 5631 5623 5616 5609 5600 5592
5376 5381 5393 5393 5408 5416 5419 5429 5436 5450 5455 5456 5467 5473 5540 5551 5546 5559 5567 5575 5584 5595 5609 5623 5635 5642 5648 5654 5656 5656 5656 5654 5652 5651 5645 5637 5632 5624 5616 5611 5604 5596 5586 5578
5361 5368 5363 5378 5404 5402 5397 5438 5433 5440 5452 5458 5453 5500 5543 5541 5534 5551 5552 5561 5570 5582 5595 5608 5624 5634 5642 5647 5647 5649 5647 5643 5640 5635 5629 5627 5622 5614 5606 5599 5592 5584 5576 5566
5370 5376 5365 5373 5373 5364 5422 5445 5441 5441 5455 5464 5474 5485 5509 5523 5531 5533 5535 5545 5556 5569 5588 5595 5607 5620 5635 5639 5639 5635 5631 5628 5625 5621 5616 5613 5610 5598 5589 5586 5580 5570 5562 5553
5379 5367 5369 5370 5363 5391 5411 5440 5440 5437 5443 5455 5462 5478 5496 5505 5504 5501 5532 5541 5550 5560 5570 5578 5587 5600 5617 5626 5631 5626 5622 5624 5616 5613 5611 5608 5602 5591 5579 5572 5566 5557 5547 5536
5382 5380 5370 5323 5352 5340 5443 5453 5442 5424 5402 5458 5457 5457 5467 5480 5459 5503 5527 5532 5540 5544 5549 5562 5575 5589 5602 5617 5615 5613 5612 5614 5615 5614 5611 5603 5593 5583 5571 5560 5552 5542 5533 5526
5360 5362 5371 5369 5371 5398 5435 5434 5426 5397 5424 5453 5443 5445 5449 5450 5464 5500 5517 5521 5531 5538 5542 5550 5563 5577 5593 5601 5605 5605 5605 5612 5613 5602 5599 5589 5578 5569 5556 5543 5532 5526 5518 5507
5388 5365 5358 5367 5366 5379 5430 5424 5410 5425 5433 5435 5435 5439 5445 5456 5467 5479 5503 5502 5519 5526 5532 5537 5547 5560 5576 5586 5590 5599 5602 5601 5594 5589 5582 5572 5561 5549 5537 5528 5517 5512 5504 5494
5381 5393 5380 5378 5378 5410 5417 5422 5421 5423 5422 5424 5425 5442 5433 5435 5452 5472 5489 5484 5503 5509 5513 5521 5528 5541 5558 5575 5581 5589 5593 5584 5576 5563 5556 5548 5539 5527 5525 5512 5502 5496 5488 5482
5391 5400 5388 5378 5417 5411 5420 5421 5427 5427 5422 5423 5430 5437 5431 5428 5435 5445 5463 5477 5487 5500 5504 5506 5511 5523 5541 5551 5563 5563 5566 5565 5558 5545 5536 5526 5518 5512 5501 5494 5487 5482 5477 5470
5396 5395 5395 5397 5409 5410 5422 5423 5427 5424 5427 5428 5431 5432 5434 5433 5429 5433 5448 5458 5470 5485 5489 5491 5496 5505 5519 5532 5535 5540 5539 5544 5537 5523 5515 5506 5497 5491 5483 5475 5470 5465 5458 5458
5399 5400 5385 5392 5412 5407 5416 5423 5419 5419 5425 5430 5432 5437 5438 5434 5435 5433 5438 5445 5456 5467 5476 5477 5488 5490 5502 5513 5511 5517 5520 5521 5516 5505 5494 5490 5483 5476 5470 5464 5450 5443 5442 5434